Home > Weather > Brazzaville > Past weeks

Flag for Congo Weather for the Past 2 Weeks in Brazzaville, Congo

Now
79 °F

Clear.


Feels Like: 82 °F
Forecast: 76 / 90 °F
Wind: No wind

Location: Brazzaville / Maya-Maya

Current Time: Feb 13, 2016 at 12:14:59 AM

Latest Report: Feb 12, 2016 at 11:00 PM


Visibility: 5 mi

Pressure: 29.92 "Hg

Humidity: 84%

Dew point: 73 °F

Location of BrazzavilleLocation

Historic Weather in Brazzaville — Graph

°F

Brazzaville Temperature Yesterday

Maximum temperature yesterday: 90 °F (at 3:00 PM)
Minimum temperature yesterday: 75 °F (at 2:00 AM)
Average temperature yesterday: 82 °F

High & Low Weather Summary for the Past Weeks

 TemperatureHumidityPressure
High95 °F (Jan 30, 3:00 PM)100% (Feb 5, 11:48 AM)30.01 "Hg (Feb 5, 11:48 AM)
Low72 °F (Feb 5, 11:48 AM)39% (Jan 30, 3:00 PM)29.77 "Hg (Jan 30, 4:00 PM)
Average82 °F75%29.90 "Hg
* Reported Jan 28 10:00 PM — Feb 12 10:00 PM, Brazzaville, Weather by CustomWeather, © 2016

Note: Actual official high and low records may vary slightly from our data, if they occured in-between our weather recording intervals... More about our weather records

Advertising

Brazzaville Weather History for the Previous 24 Hours

 ConditionsComfort  
Time TempWeatherWind HumidityBarometerVisibility
10:00 PM
Fri, Feb 12
81 °FClear.No wind79%29.92 "Hg5 mi
9:00 PM82 °FClear.1 mph79%29.89 "Hg5 mi
8:00 PM84 °FClear.1 mph66%29.86 "Hg5 mi
7:00 PM84 °FPassing clouds.2 mph70%29.83 "Hg5 mi
6:00 PM88 °FPassing clouds.3 mph59%29.83 "HgN/A
5:00 PM90 °FPassing clouds.9 mph55%29.80 "HgN/A
4:00 PM90 °FScattered clouds.10 mph52%29.80 "HgN/A
3:00 PM90 °FScattered clouds.9 mph55%29.83 "HgN/A
2:00 PM88 °FPartly sunny.9 mph59%29.86 "HgN/A
1:00 PM88 °FPartly sunny.7 mph59%29.89 "HgN/A
12:00 PM86 °FPartly sunny.6 mph66%29.92 "HgN/A
11:00 AM82 °FBroken clouds.6 mph70%29.95 "Hg6 mi
10:00 AM82 °FScattered clouds.5 mph74%29.95 "HgN/A
9:00 AM81 °FScattered clouds.6 mph79%29.98 "HgN/A
8:00 AM79 °FPassing clouds.5 mph84%29.95 "Hg5 mi
7:00 AM75 °FPassing clouds.3 mph94%29.95 "Hg5 mi
6:00 AM75 °FPassing clouds.2 mph94%29.92 "Hg5 mi
5:00 AM75 °FPassing clouds.No wind94%29.92 "Hg5 mi
4:00 AM75 °FPassing clouds.No wind94%29.89 "Hg5 mi
3:00 AM75 °FClear.1 mph94%29.89 "Hg5 mi
2:00 AM75 °FClear.1 mph94%29.89 "Hg5 mi
1:00 AM77 °FPassing clouds.3 mph89%29.92 "Hg5 mi
12:00 AM77 °FPassing clouds.No wind89%29.92 "Hg5 mi
Weather by CustomWeather, © 2016

See weather overviewHow to use our weather pages